Starlink 11176

operational
NORAD ID: 60060 Int'l Des: 2024-113 Owner: SPXS Country: US Constellation: starlink
LEOCIRCULAR

Starlink 11176について

説明を読み込み中...

リアルタイム位置

3D地球を読み込み中...

次回通過

高度履歴

Altitude vs Time

uPlot chart will show altitude changes over time

軌道要素

1 60060U 24113B 25258.49366059 .00000025 00000-0 50662-5 0 9998
2 60060 53.1583 334.9437 0001057 73.1123 287.0010 15.69719517 72044
Epoch: Sep 15, 2025 • Age: 16 hours

現在のステータス

高度 365.6 km
速度 7.70 km/s
衛星直下点 53.28°N, 10.97°E
打ち上げ日 Jun 19, 2024
運用期間 1.2 years
タイプ internet

技術仕様

分類 Payload
質量 960.00 kg
乾燥質量 910.00 kg
総質量 960.00 kg
長さ 0.30 m
直径 4.10 m
スパン 29.00 m
形状 Box + pan
製造者 SPXS
バスタイプ Starlink V2MD
フェーズステータス In Orbit
所有者/国 SPXS/US

大規模コンステレーション

Loading constellations...